[Date Prev][Date Next][Thread Prev][Thread Next] - [Date Index][Thread Index][Author Index]
2 Line ISS Keps 8-27
- Subject: [sarex] 2 Line ISS Keps 8-27
- From: "Dave Larsen PhD" <doc@xxxxxxxxxxx>
- Date: Fri, 27 Aug 2004 05:46:06 -0700
ISS
1 25544U 98067A 04240.45923611 .00013575 00000-0 11974-3 0 5432
2 25544 51.6371 321.8738 0005373 80.5467 102.0283 15.69042111329511
----
Via the sarex mailing list at AMSAT.ORG courtesy of AMSAT-NA.
To unsubscribe, send "unsubscribe sarex" to Majordomo@amsat.org
AMSAT Home